This is the latest recevied weather packets stored in our database for station/object K3HW. If no packets are shown the sender has not sent any weather packets the latest 10 day(s).
| Time | Temp. | Humidity | Pressure | Rain* | Wind** | Luminosity | Snow |
|---|---|---|---|---|---|---|---|
| 1778088308 | 16.67° C | 86% | 1011.6 hPa | 0 mm | - | 53 W/m² | - |
| 1778088004 | 16.67° C | 86% | 1011.7 hPa | 0 mm | - | 38 W/m² | - |
| 1778087701 | 16.67° C | 86% | 1012 hPa | 0 mm | - | 29 W/m² | - |
| 1778087399 | 16.67° C | 86% | 1011.9 hPa | 0 mm | - | 25 W/m² | - |
| 1778087096 | 16.67° C | 86% | 1011.8 hPa | 0 mm | - | 27 W/m² | - |
| 1778086794 | 16.67° C | 87% | 1011.9 hPa | 0 mm | - | 62 W/m² | - |
| 1778086492 | 16.67° C | 87% | 1011.8 hPa | 0 mm | - | 54 W/m² | - |
| 1778086188 | 16.67° C | 87% | 1012 hPa | 0 mm | - | 45 W/m² | - |
| 1778085885 | 16.67° C | 88% | 1011.8 hPa | 0 mm | - | 93 W/m² | - |
| 1778085582 | 16.67° C | 88% | 1011.9 hPa | 0 mm | - | 74 W/m² | - |
| 1778085277 | 16.67° C | 88% | 1011.6 hPa | 1.27 mm | - | 95 W/m² | - |
| 1778084972 | 16.67° C | 88% | 1011.9 hPa | 1.27 mm | - | 87 W/m² | - |
| 1778084671 | 16.67° C | 89% | 1011.6 hPa | 0 mm | - | 166 W/m² | - |
| 1778084367 | 16.11° C | 89% | 1011.8 hPa | 0 mm | - | 121 W/m² | - |
| 1778084066 | 16.11° C | 89% | 1012.1 hPa | 1.78 mm | - | 66 W/m² | - |
| 1778083763 | 16.11° C | 89% | 1012.5 hPa | 1.78 mm | - | 76 W/m² | - |
| 1778083460 | 16.11° C | 89% | 1012.6 hPa | 1.27 mm | - | 63 W/m² | - |
| 1778083158 | 16.11° C | 89% | 1012.9 hPa | 1.27 mm | - | 61 W/m² | - |
| 1778082855 | 16.11° C | 89% | 1013 hPa | 3.05 mm | - | 69 W/m² | - |
| 1778081731 | 16.11° C | 87% | 1013 hPa | 4.83 mm | - | 15 W/m² | - |
| 1778081428 | 16.11° C | 86% | 1013 hPa | 4.83 mm | - | 20 W/m² | - |
| 1778081125 | 16.67° C | 85% | 1012.8 hPa | 3.05 mm | - | 19 W/m² | - |
| 1778080824 | 16.67° C | 85% | 1012.7 hPa | 3.05 mm | - | 22 W/m² | - |
| 1778080521 | 16.67° C | 85% | 1013.1 hPa | 3.05 mm | - | 27 W/m² | - |
| 1778080218 | 16.67° C | 84% | 1013.1 hPa | 1.27 mm | - | 35 W/m² | - |
* Rain latest hour (hover to see other rain measurements)
** Current wind speed in m/s (hover to see current wind gust speed)